STARLINK-33574 (62774 NORAD) Tracking and Keplerian Element Data

This shows tracking and keplerian element data for the satellite.

Feedback or suggestion? Click here.




ElementValue
Catalog62774
NameSTARLINK-33574
Epoch Orbit297
Epoch Day35.25001157
Epoch Year2025
RAAN18.6469
Inclination53.1601
Eccentricity0.0001155
Argument of Perigee72.5073
Mean Anonmoly218.6341
Mean Motion15.78274335
Decay Rate-0.01097908
L11 62774U 25015S 25035.25001157 -.01097908 00000+0 -69749-2 0 9997
L22 62774 53.1601 18.6469 0001155 72.5073 218.6341 15.78274335 2972



Live tracking and technical data element details for STARLINK-33574 (NORAD 62774). STARLINK-33574 can be tracked NOW for your location showing map with azimuth and elevation plus other details from your city location.







IsCatalogInMostPopularTable: catalog: 62774, numindb: 3
Update: records affected: 1



GetName: 62774 STARLINK-33574

Hit Count: updated at: Sun, 09 Feb 2025 14:54:40 GMT